Location: Newark
(41.8083°N, 72.2500°W)
Time: 13:57:30
(UTC+00:00)

deb Explorer IX - Pass Details

Date: 08 December 2021
Orbit: 544 x 1082 km, 38.8° (Epoch: 19 January)

Event Time Altitude Azimuth Distance (km) Brightness Sun altitude
Rises 13:26:01 0° 239° (WSW) 3,377 ? 11.2°
Reaches altitude 10° 13:28:49 10° 233° (SW) 2,347 ? 11.6°
Maximum altitude 13:33:56 42° 164° (SSE) 1,003 ? 12.3°
Drops below altitude 10° 13:38:22 10° 93° (E) 2,032 ? 12.8°
Sets 13:40:39 0° 86° (E) 2,874 ? 13.1°
